Date String (YYYY-MM-DD hh:mm:ss) UTC,Instrument flags,Ambient pressure (hPa),Sample flow (lpm),Bypass flow (lpm),Sample temperature (°C),Ambient temperature (°C),ASC tube jacket temperature (°C),LED temperature (°C),Box temperature (°C),Sample RH (%),Span deviation,Mass concentration (μg/m³),Mass concentration (μg/m³),Mass concentration (μg/m³)
DateTimeUTC,F1_M11,P_M11,Q1_M11,Q2_M11,T1_M11,T2_M11,T3_M11,T4_M11,T5_M11,U1_M11,ZSPAN_M11,X2_M11,X0_M11,X1_M11
2022-01-25 05:00:00,,0823.4,5.00,0.00,22.6,22.1,00.0,31.5,24.3,11.2,0000.0,0003.79,0012.18,0002.70
2022-01-25 05:01:00,,0823.4,5.01,0.00,22.6,22.1,00.0,31.5,24.3,11.2,0000.0,0003.79,0011.64,0002.72
2022-01-25 05:02:00,,0823.4,5.00,0.00,22.6,22.0,00.0,31.5,24.3,11.2,0000.0,0003.81,0011.38,0002.74
2022-01-25 05:03:00,,0823.5,5.01,0.00,22.5,22.0,00.0,31.5,24.3,11.2,0000.0,0003.87,0011.80,0002.77
2022-01-25 05:04:00,,0823.6,5.01,0.00,22.5,22.0,00.0,31.5,24.3,11.2,0000.0,0003.85,0011.99,0002.78
2022-01-25 05:05:00,,0823.6,5.01,0.00,22.5,21.9,00.0,31.5,24.3,11.2,0000.0,0003.82,0012.42,0002.79
2022-01-25 05:06:00,,0823.6,5.00,0.00,22.5,21.9,00.0,31.5,24.3,11.2,0000.0,0003.81,0012.46,0002.78
2022-01-25 05:07:00,,0823.6,4.99,0.00,22.5,21.9,00.0,31.5,24.2,11.2,0000.0,0003.83,0013.19,0002.75
2022-01-25 05:08:00,,0823.6,4.99,0.00,22.5,21.9,00.0,31.5,24.3,11.2,0000.0,0003.83,0014.78,0002.71
2022-01-25 05:09:00,,0823.6,5.01,0.00,22.5,21.8,00.0,31.5,24.2,11.2,0000.0,0003.77,0015.12,0002.67
2022-01-25 05:10:00,,0823.7,4.99,0.00,22.4,21.8,00.0,31.5,24.2,11.2,0000.0,0003.72,0014.62,0002.64
2022-01-25 05:11:00,,0823.7,5.00,0.00,22.4,21.8,00.0,31.5,24.2,11.2,0000.0,0003.69,0014.94,0002.63
2022-01-25 05:12:00,,0823.7,5.01,0.00,22.4,21.8,00.0,31.5,24.2,11.3,0000.0,0003.69,0015.29,0002.61
2022-01-25 05:13:00,,0823.7,4.99,0.00,22.4,21.8,00.0,31.4,24.2,11.3,0000.0,0003.67,0015.24,0002.59
2022-01-25 05:14:00,,0823.7,5.00,0.00,22.4,21.8,00.0,31.4,24.1,11.2,0000.0,0003.59,0014.86,0002.56
2022-01-25 05:15:00,,0823.7,4.99,0.00,22.4,21.7,00.0,31.4,24.1,11.2,0000.0,0003.55,0014.61,0002.54
2022-01-25 05:16:00,,0823.7,5.02,0.00,22.4,21.7,00.0,31.4,24.1,11.3,0000.0,0003.60,0014.15,0002.54
2022-01-25 05:17:00,,0823.7,5.00,0.00,22.4,21.7,00.0,31.4,24.1,11.3,0000.0,0003.57,0013.50,0002.54
2022-01-25 05:18:00,,0823.6,5.00,0.00,22.4,21.7,00.0,31.4,24.1,11.3,0000.0,0003.46,0011.82,0002.50
2022-01-25 05:19:00,,0823.6,5.00,0.00,22.4,21.7,00.0,31.4,24.1,11.2,0000.0,0003.43,0009.72,0002.49
2022-01-25 05:20:00,,0823.7,5.00,0.00,22.3,21.7,00.0,31.4,24.1,11.2,0000.0,0003.42,0008.91,0002.47
2022-01-25 05:21:00,,0823.7,5.00,0.00,22.3,21.7,00.0,31.4,24.1,11.2,0000.0,0003.42,0009.20,0002.47
2022-01-25 05:22:00,,0823.6,5.00,0.00,22.3,21.7,00.0,31.4,24.1,11.2,0000.0,0003.39,0009.23,0002.45
2022-01-25 05:23:00,,0823.6,5.00,0.00,22.3,21.7,00.0,31.4,24.1,11.2,0000.0,0003.37,0008.68,0002.45
2022-01-25 05:24:00,,0823.7,5.00,0.00,22.3,21.7,00.0,31.4,24.1,11.2,0000.0,0003.34,0008.61,0002.43
2022-01-25 05:25:00,,0823.7,5.01,0.00,22.3,21.6,00.0,31.3,24.1,11.2,0000.0,0003.34,0009.07,0002.42
2022-01-25 05:26:00,,0823.7,5.01,0.00,22.3,21.6,00.0,31.3,24.1,11.2,0000.0,0003.34,0008.90,0002.42
2022-01-25 05:27:00,,0823.6,5.00,0.00,22.3,21.6,00.0,31.3,24.1,11.1,0000.0,0003.28,0009.00,0002.39
2022-01-25 05:28:00,,0823.6,5.00,0.00,22.3,21.6,00.0,31.3,24.1,11.2,0000.0,0003.24,0008.83,0002.36
2022-01-25 05:29:00,,0823.6,5.00,0.00,22.3,21.6,00.0,31.3,24.1,11.2,0000.0,0003.24,0008.78,0002.36
2022-01-25 05:30:00,,0823.7,5.00,0.00,22.3,21.6,00.0,31.3,24.1,11.2,0000.0,0003.22,0009.37,0002.36
2022-01-25 05:31:00,,0823.6,5.00,0.00,22.3,21.6,00.0,31.3,24.1,11.1,0000.0,0003.18,0009.29,0002.35
2022-01-25 05:32:00,,0823.7,4.99,0.00,22.3,21.6,00.0,31.3,24.1,11.2,0000.0,0003.17,0009.11,0002.35
2022-01-25 05:33:00,,0823.7,5.00,0.00,22.3,21.6,00.0,31.3,24.1,11.2,0000.0,0003.19,0008.61,0002.33
2022-01-25 05:34:00,,0823.7,5.01,0.00,22.3,21.6,00.0,31.3,24.1,11.2,0000.0,0003.17,0008.87,0002.31
2022-01-25 05:35:00,,0823.6,5.00,0.00,22.3,21.6,00.0,31.3,24.1,11.2,0000.0,0003.18,0008.95,0002.31
2022-01-25 05:36:00,,0823.6,4.99,0.00,22.3,21.6,00.0,31.3,24.1,11.2,0000.0,0003.17,0008.52,0002.31
2022-01-25 05:37:00,,0823.6,5.00,0.00,22.3,21.6,00.0,31.3,24.1,11.2,0000.0,0003.18,0008.17,0002.30
2022-01-25 05:38:00,,0823.6,5.00,0.00,22.3,21.6,00.0,31.3,24.0,11.2,0000.0,0003.18,0007.76,0002.29
2022-01-25 05:39:00,,0823.6,5.01,0.00,22.2,21.6,00.0,31.3,24.0,11.2,0000.0,0003.21,0007.82,0002.28
2022-01-25 05:40:00,,0823.6,5.00,0.00,22.3,21.7,00.0,31.3,24.1,11.2,0000.0,0003.20,0008.18,0002.28
2022-01-25 05:41:00,,0823.6,5.00,0.00,22.4,22.3,00.0,31.3,24.2,11.1,0000.0,0003.22,0008.33,0002.27
2022-01-25 05:42:00,,0823.6,5.00,0.00,22.5,23.0,00.0,31.3,24.5,11.0,0000.0,0003.23,0008.35,0002.27
2022-01-25 05:43:00,,0823.6,4.99,0.00,22.6,23.0,00.0,31.4,24.6,11.0,0000.0,0003.23,0008.33,0002.26
2022-01-25 05:44:00,,0823.7,5.01,0.00,22.6,22.9,00.0,31.4,24.6,11.0,0000.0,0003.21,0008.31,0002.26
2022-01-25 05:45:00,,0823.7,5.01,0.00,22.6,22.7,00.0,31.4,24.5,10.9,0000.0,0003.22,0008.60,0002.27
2022-01-25 05:46:00,,0823.7,5.01,0.00,22.6,22.6,00.0,31.4,24.5,10.9,0000.0,0003.23,0008.59,0002.27
2022-01-25 05:47:00,,0823.6,4.98,0.00,22.6,22.4,00.0,31.4,24.5,11.0,0000.0,0003.23,0009.34,0002.28
2022-01-25 05:48:00,,0823.6,5.01,0.00,22.6,22.3,00.0,31.4,24.4,11.0,0000.0,0003.23,0009.71,0002.28
2022-01-25 05:49:00,,0823.6,5.00,0.00,22.6,22.2,00.0,31.5,24.4,11.0,0000.0,0003.23,0009.64,0002.28
2022-01-25 05:50:00,,0823.6,5.00,0.00,22.6,22.2,00.0,31.5,24.4,11.0,0000.0,0003.24,0009.80,0002.29
2022-01-25 05:51:00,,0823.7,4.99,0.00,22.6,22.1,00.0,31.5,24.4,11.0,0000.0,0003.22,0009.83,0002.28
2022-01-25 05:52:00,,0823.7,4.99,0.00,22.6,22.1,00.0,31.5,24.4,11.0,0000.0,0003.20,0009.22,0002.28
2022-01-25 05:53:00,,0823.6,5.00,0.00,22.6,22.0,00.0,31.5,24.4,10.9,0000.0,0003.20,0009.13,0002.28
2022-01-25 05:54:00,,0823.6,5.01,0.00,22.6,22.0,00.0,31.5,24.4,10.9,0000.0,0003.19,0009.56,0002.28
2022-01-25 05:55:00,,0823.7,5.00,0.00,22.6,22.0,00.0,31.5,24.4,10.9,0000.0,0003.22,0010.12,0002.27
2022-01-25 05:56:00,,0823.7,4.99,0.00,22.6,22.0,00.0,31.5,24.4,10.9,0000.0,0003.21,0010.41,0002.27
2022-01-25 05:57:00,,0823.7,5.01,0.00,22.6,21.9,00.0,31.5,24.4,10.9,0000.0,0003.16,0010.69,0002.27
2022-01-25 05:58:00,,0823.7,5.00,0.00,22.5,21.9,00.0,31.5,24.3,11.0,0000.0,0003.19,0010.19,0002.26
2022-01-25 05:59:00,,0823.7,5.00,0.00,22.5,21.9,00.0,31.5,24.3,11.0,0000.0,0003.20,0009.98,0002.27
